This demonstration page uses our WeatherBlox Daily Observations layout. Learn more.

Left ArrowRight Arrow

44.8408, -93.29828

Hourly Observations for March 3, 2018

Temp ( °F °C ) Dew Point ( °F °C ) Humidity (%) Winds ( mph kmh ) Pressure ( in mb ) Visibility ( mi km ) Precip ( " mm )
12:53 am 00:53 Mostly Clear 35 1.7 24 -4.4 64 64 ESE 10 17 30.40 1029 10 16 0.00 0.00
1:53 am 01:53 Clear 35 1.7 24 -4.4 64 64 ESE 10 17 30.40 1029 10 16 0.00 0.00
2:53 am 02:53 Partly Cloudy 33 0.6 23 -5 66 66 ESE 10 17 30.39 1029 10 16 0.00 0.00
3:53 am 03:53 Mostly Cloudy 33 0.6 23 -5 66 66 ESE 12 19 30.38 1029 10 16 0.00 0.00
4:53 am 04:53 Mostly Cloudy 35 1.7 24 -4.4 64 64 ESE 14 22 30.38 1029 10 16 0.00 0.00
5:53 am 05:53 Mostly Cloudy 35 1.7 24 -4.4 64 64 SE 15 24 30.38 1029 10 16 0.00 0.00
6:53 am 06:53 Partly Cloudy 35 1.7 24 -4.4 64 64 SE 18 30 30.37 1029 10 16 0.00 0.00
7:53 am 07:53 Mostly Cloudy 36 2.2 25 -3.9 64 64 ESE 18 30 30.37 1029 10 16 0.00 0.00
8:53 am 08:53 Mostly Cloudy 37 2.8 26 -3.3 65 65 SE 23 37 30.37 1028 10 16 0.00 0.00
9:53 am 09:53 Partly Cloudy 38 3.3 26 -3.3 62 62 SE 23 37 30.36 1028 10 16 0.00 0.00
10:53 am 10:53 Sunny 39 3.9 26 -3.3 60 60 SE 22 35 30.36 1028 10 16 0.00 0.00
11:53 am 11:53 Mostly Cloudy 41 5 26 -3.3 55 55 SE 25 41 30.36 1028 10 16 0.00 0.00
12:53 pm 12:53 Mostly Cloudy 42 5.6 27 -2.8 55 55 SE 24 39 30.34 1027 10 16 0.00 0.00
1:53 pm 13:53 Sunny 43 6.1 28 -2.2 56 56 SE 24 39 30.33 1027 10 16 0.00 0.00
2:53 pm 14:53 Partly Cloudy 44 6.7 28 -2.2 53 53 SE 20 31 30.31 1026 10 16 0.00 0.00
3:53 pm 15:53 Partly Cloudy 44 6.7 27 -2.8 51 51 SE 22 35 30.30 1026 10 16 0.00 0.00
4:53 pm 16:53 Mostly Cloudy 44 6.7 27 -2.8 51 51 ESE 15 24 30.29 1026 10 16 0.00 0.00
5:53 pm 17:53 Mostly Cloudy 43 6.1 26 -3.3 51 51 SE 13 20 30.29 1026 10 16 0.00 0.00
6:53 pm 18:53 Mostly Cloudy 42 5.6 26 -3.3 53 53 ESE 10 17 30.28 1026 10 16 0.00 0.00
7:53 pm 19:53 Cloudy 41 5 25 -3.9 53 53 ESE 10 17 30.29 1026 10 16 0.00 0.00
8:53 pm 20:53 Cloudy 42 5.6 25 -3.9 51 51 SE 10 17 30.31 1026 10 16 0.00 0.00
9:53 pm 21:53 Cloudy 41 5 26 -3.3 55 55 SE 16 26 30.32 1027 10 16 0.00 0.00
10:53 pm 22:53 Cloudy 41 5 26 -3.3 55 55 SE 16 26 30.32 1027 10 16 0.00 0.00
11:53 pm 23:53 Cloudy 40 4.4 26 -3.3 58 58 SE 17 28 30.31 1027 10 16 0.00 0.00

Powered by AerisWeather